This demonstration page uses our WeatherBlox Daily Observations layout. Learn more.

41.55636, -103.73856

Hourly Observations for August 25, 2018

Temp ( °F °C ) Dew Point ( °F °C ) Humidity (%) Winds ( mph kmh ) Pressure ( in mb ) Visibility ( mi km ) Precip ( " mm )
12:58 am 00:58 Clear 57 14.1 38 3.6 49 49 WNW 8 13 29.88 1012 10 16.09344 0 0
1:58 am 01:58 Clear 54 12.4 40 4.2 58 58 Calm 29.85 1011 10 16.09344 0 0
2:58 am 02:58 Clear 57 14.1 41 4.9 54 54 W 8 13 29.85 1011 10 16.09344 0 0
3:58 am 03:58 Clear 57 13.7 41 5.2 57 57 W 7 11 29.85 1011 10 16.09344 0 0
4:58 am 04:58 Clear 57 13.7 41 5.1 56 56 W 8 13 29.85 1011 10 16.09344 0 0
5:58 am 05:58 Clear 53 11.9 42 5.3 64 64 W 8 13 29.88 1012 10 16.09344 0 0
6:58 am 06:58 Sunny 57 13.9 42 5.3 56 56 W 12 19 29.91 1013 10 16.09344 0 0
7:58 am 07:58 Sunny 64 17.9 44 6.7 48 48 WNW 6 9 29.91 1013 10 16.09344 0 0
8:58 am 08:58 Sunny 76 24.3 47 8.2 36 36 NNW 9 15 29.88 1012 10 16.09344 0 0
9:58 am 09:58 Sunny 81 27 44 6.7 28 28 Calm 29.88 1012 10 16.09344 0 0
10:58 am 10:58 Sunny 83 28.1 39 3.8 21 21 S 6 9 29.88 1012 10 16.09344 0 0
11:58 am 11:58 Sunny 83 28.4 43 6.3 25 25 SSE 9 15 29.88 1012 10 16.09344 0 0
12:58 pm 12:58 Sunny 86 29.8 44 6.5 23 23 ESE 12 19 29.85 1011 10 16.09344 0 0
1:58 pm 13:58 Sunny 88 31 41 4.9 19 19 SE 12 19 29.83 1010 10 16.09344 0 0
2:58 pm 14:58 Partly Cloudy 82 28 36 2.4 19 19 SSW 32 52 29.83 1010 8 12.874752 0 0
3:58 pm 15:58 Sunny 85 29.4 42 5.6 22 22 SE 21 33 29.83 1010 10 16.09344 0 0
4:58 pm 16:58 Mostly Cloudy with Light Showers 70 21.2 51 10.7 51 51 NW 12 19 29.94 1014 10 16.09344 0.02 0.508
5:58 pm 17:58 Mostly Sunny 76 24.6 53 11.4 44 44 ESE 9 15 29.85 1011 10 16.09344 0 0
6:58 pm 18:58 Sunny 72 22.2 54 12.1 53 53 SSE 7 11 29.85 1011 10 16.09344 0 0
7:58 pm 19:58 Clear 66 18.7 51 10.7 60 60 SSE 8 13 29.85 1011 10 16.09344 0 0
8:58 pm 20:58 Clear 66 18.8 52 11.3 62 62 SSE 13 20 29.83 1010 10 16.09344 0 0
9:58 pm 21:58 Clear 68 19.8 50 9.9 53 53 S 10 17 29.83 1010 10 16.09344 0 0
10:58 pm 22:58 Mostly Clear 67 19.3 50 10.2 56 56 S 12 19 29.83 1010 10 16.09344 0 0
11:58 pm 23:58 Clear 64 17.9 52 10.9 64 64 SSW 8 13 29.83 1010 10 16.09344 0 0

Powered by AerisWeather